Temperature
15 15 16 16 14 12 13 14 14 15 15 16 17 17 16 16 16 17 18 18 18 17 17 16 16 17 17 17 17 17 16 16 16 16 16 16 16 16 16 16 16 15 15 15 15 15 15 15 15
14 15 16 15 12 13 13 13 14 15 16 16 17 16 16 16 17 17 17 17 17 17 17 16 16 17 17 16 17 17 16 16 16 16 16 16 16 16 16 16 15 15 15 15 15 15 15 15 15
14 14 15 12 12 13 14 14 13 15 16 16 16 16 16 16 16 17 17 17 17 17 16 16 16 16 16 16 16 16 16 16 16 16 16 16 16 16 16 16 15 15 15 15 15 15 15 14 14
14 14 13 11 12 13 14 13 13 14 15 15 15 15 15 16 16 16 17 17 16 16 16 16 16 16 16 16 16 16 16 16 16 16 16 16 16 16 16 15 15 15 15 15 15 15 14 14 14
13 13 11 11 12 12 12 13 14 14 14 14 14 14 15 15 16 16 16 16 16 16 16 16 16 16 16 16 16 16 16 16 16 16 16 16 16 15 15 15 15 15 15 15 15 14 14 14 14
13 11 10 11 12 12 12 13 14 13 13 14 14 13 15 15 16 16 16 16 16 16 16 16 16 16 16 16 16 15 15 15 15 15 15 15 15 15 15 15 15 15 15 14 14 14 14 14 13
11 9 10 11 11 12 12 13 13 12 12 13 14 13 14 15 15 15 15 15 15 15 15 15 15 15 15 16 15 15 15 15 15 15 15 15 15 15 15 15 15 14 14 14 14 14 14 13 13
11 9 10 10 10 11 12 13 13 13 12 13 14 13 13 14 14 15 14 15 15 15 15 15 15 15 15 15 15 15 15 15 15 15 15 15 15 15 15 15 15 14 14 14 14 14 13 13 13
10 9 9 9 10 11 11 12 12 13 12 12 13 13 14 14 14 14 14 14 14 14 14 14 14 14 15 15 15 15 15 15 15 15 15 15 15 15 15 14 14 14 14 14 14 13 13 13 13
9 8 9 10 10 10 10 11 11 12 11 11 12 13 13 13 13 13 13 13 14 14 14 14 14 14 14 14 14 14 14 14 14 15 15 15 15 15 15 14 14 14 14 14 13 13 13 13 12
8 8 9 9 10 10 10 10 11 11 10 11 12 12 12 12 12 13 13 13 13 13 14 14 14 14 14 14 14 14 14 14 14 14 14 14 14 14 14 14 14 14 14 13 13 13 13 12 12
7 8 8 9 10 10 9 9 9 10 11 12 12 12 12 12 12 12 12 13 13 13 13 13 13 13 13 14 14 14 14 14 14 14 14 14 14 14 14 14 14 14 13 13 13 13 12 12 12
7 7 8 8 9 9 9 9 9 9 11 11 12 12 11 12 12 12 12 12 12 13 13 13 13 13 13 13 13 13 13 14 14 13 14 14 14 14 14 13 13 13 13 13 13 12 12 12 12
7 7 7 8 8 8 8 8 9 9 10 10 11 11 11 11 12 12 12 12 12 12 12 13 13 13 13 13 13 13 13 13 13 13 13 13 13 13 13 13 13 13 13 13 12 12 12 12 12
7 7 7 7 8 8 8 8 8 9 9 9 10 10 11 11 11 11 11 12 12 12 12 12 12 12 13 13 13 13 13 13 13 13 13 13 13 13 13 13 13 13 13 12 12 12 12 12 11
6 6 7 7 7 8 8 8 8 9 9 9 9 10 10 10 10 11 11 11 11 11 12 12 12 12 12 12 12 12 12 12 12 12 12 12 12 12 13 12 12 12 12 12 12 12 11 11 11
5 6 6 7 7 7 7 7 7 8 8 8 9 9 9 10 10 10 11 11 11 11 12 12 12 12 12 12 12 12 12 12 12 12 12 12 12 12 12 12 12 12 12 11 11 11 11 11 11
5 5 6 6 7 7 6 6 7 7 8 8 8 9 9 9 9 10 10 11 11 11 11 11 11 11 11 11 11 11 11 11 11 11 12 11 11 11 11 11 11 11 11 11 11 11 11 10 10
5 5 6 6 7 6 6 6 7 7 7 7 7 8 8 9 9 9 10 10 10 11 11 11 11 11 11 11 11 11 11 11 11 11 11 11 11 11 11 11 11 11 11 11 11 10 10 10 10
5 5 5 6 6 7 6 6 6 6 6 7 7 8 8 8 9 9 10 10 10 10 10 10 11 11 11 11 11 11 11 10 10 10 10 11 11 11 11 11 11 11 11 10 10 10 10 10 9
5 5 5 6 6 6 6 6 6 6 6 7 7 8 8 8 8 9 9 9 9 10 10 10 10 11 11 10 10 10 10 10 10 10 10 10 10 10 10 10 10 10 10 10 10 10 10 9 9
5 5 6 6 5 5 6 6 6 6 6 6 6 7 7 8 8 8 9 9 9 9 9 9 10 10 10 10 10 10 10 10 10 9 10 10 10 10 10 10 10 10 10 10 10 10 9 9 9
5 5 5 5 5 4 5 5 6 5 5 5 5 7 7 8 8 8 8 8 9 9 9 9 9 9 9 9 9 9 9 9 9 9 9 10 9 9 9 9 9 9 9 9 9 9 9 9 9
5 5 5 4 4 5 5 5 5 5 5 6 6 6 7 7 8 8 8 8 8 8 9 9 9 9 9 9 9 9 9 9 9 9 9 9 9 9 9 9 9 9 9 9 8 8 8 8 8
5 4 5 5 4 4 4 4 5 5 5 6 6 6 7 7 7 7 8 8 8 8 8 8 8 8 8 8 8 8 8 9 9 9 9 9 9 9 8 8 8 8 8 8 8 8 8 8 8
4 4 5 5 4 4 4 4 5 5 5 6 6 6 6 7 7 7 8 8 8 8 8 8 8 8 8 8 8 8 8 8 8 8 8 8 8 8 8 8 8 8 8 8 8 7 7 7 7
3 3 4 3 3 4 4 4 4 4 4 4 5 5 6 6 7 7 7 7 8 8 8 7 7 8 7 7 7 7 7 8 8 8 8 8 8 8 7 7 7 7 7 7 7 7 7 7 7
3 2 2 3 4 5 4 4 4 5 5 4 4 4 5 6 6 6 7 7 7 7 7 7 7 7 7 7 7 7 7 7 7 7 7 7 7 7 7 7 7 7 7 6 6 6 6 6 6
2 2 2 2 3 3 4 5 4 4 4 4 4 4 5 5 6 6 6 7 7 7 7 7 7 7 7 6 6 6 6 7 6 6 6 6 6 6 6 6 6 6 6 6 6 6 6 6 6
2 2 1 3 2 1 2 4 4 3 3 3 4 4 5 5 5 6 6 6 6 6 6 6 6 6 6 6 6 6 6 6 6 6 6 6 6 6 6 6 6 6 5 5 5 5 5 5 5
Wind_Speed
10 7 2 4 4 2 4 4 3 2 2 1 2 4 5 5 4 3 1 5 7 9 10 12 13 14 14 14 14 14 14 15 15 15 15 15 15 15 15 15 15 14 14 14 14 14 13 13 13
5 3 4 4 4 3 5 5 5 4 3 2 1 2 2 2 0 2 2 3 7 9 10 11 13 14 14 14 15 14 14 14 15 15 15 15 14 14 14 14 14 14 14 13 13 13 13 13 13
4 3 3 4 4 8 7 4 6 3 2 2 1 1 2 2 1 2 2 5 7 8 9 12 13 14 14 14 14 14 14 14 14 15 14 14 14 14 14 14 14 13 13 13 13 12 12 12 12
3 3 3 2 8 8 6 3 4 3 0 1 2 0 1 1 0 1 4 6 8 7 9 12 14 13 14 14 14 14 14 14 13 14 14 14 14 13 14 13 13 13 12 12 12 12 12 11 11
3 3 2 4 9 5 3 2 2 2 1 0 2 2 2 2 2 4 6 7 9 8 8 11 13 13 14 14 14 14 14 14 13 13 13 13 13 13 13 13 13 12 12 11 11 11 10 11 11
2 2 4 9 10 5 3 2 1 1 1 0 1 1 2 1 3 3 5 6 7 8 7 11 13 13 13 14 14 14 14 13 13 12 12 13 12 13 13 12 12 12 11 10 10 10 10 10 10
3 3 6 7 6 6 4 2 3 3 2 3 2 2 2 0 1 3 4 5 5 7 6 7 10 11 12 13 14 13 13 13 13 13 12 12 12 12 12 11 11 11 11 10 10 10 9 9 9
2 3 4 6 6 6 2 3 2 3 3 1 2 4 3 3 2 3 4 5 5 5 5 5 7 9 9 11 13 13 13 13 13 12 12 11 11 11 11 10 10 10 10 10 9 9 9 8 8
2 2 7 7 7 5 2 2 1 1 2 1 1 2 3 4 5 5 5 4 4 5 5 5 5 6 8 9 11 12 12 12 12 12 12 10 9 9 9 9 10 9 9 9 9 8 8 8 8
3 6 9 4 3 2 1 1 2 2 1 2 2 2 1 5 6 7 6 7 6 6 6 5 5 6 7 8 9 10 9 10 10 10 10 9 8 8 8 9 9 8 8 8 8 8 8 8 7
3 6 4 3 2 2 2 2 1 4 5 6 5 4 4 5 6 7 7 7 7 6 6 6 6 6 6 5 7 6 7 8 8 9 9 9 8 7 7 6 7 7 7 7 7 7 7 6 6
2 3 3 3 3 2 2 2 2 4 7 4 5 6 6 7 7 8 7 7 6 5 5 5 6 6 5 5 5 5 6 6 6 8 9 8 6 5 5 5 5 5 5 5 5 5 5 6 6
5 4 3 3 3 3 3 5 4 7 7 3 3 5 7 8 7 6 5 6 6 6 5 5 7 7 6 5 4 4 4 5 6 7 7 8 6 5 5 4 4 4 5 5 5 5 5 5 5
4 3 4 5 5 3 4 7 5 7 4 3 4 5 7 8 7 5 5 5 5 6 5 5 6 7 6 5 4 4 4 5 6 6 6 7 7 6 5 4 4 4 4 4 5 4 4 4 4
3 3 5 5 5 4 3 7 9 7 4 5 5 5 6 6 6 6 6 6 5 5 5 4 6 6 6 6 5 4 5 5 5 6 7 7 7 7 5 4 3 4 5 5 5 5 5 3 3
1 2 5 5 4 4 5 11 7 4 5 7 6 5 5 6 6 6 5 5 5 4 4 4 5 6 6 5 4 4 5 5 4 5 6 6 6 7 6 4 3 4 5 5 4 3 2 2 2
1 4 6 5 4 3 6 9 6 4 5 7 6 5 5 6 5 4 4 5 5 5 4 3 5 6 6 5 4 3 4 3 4 5 5 6 6 7 6 4 4 5 5 4 3 2 2 2 1
6 6 6 7 4 5 7 10 8 5 6 7 6 5 6 7 6 5 4 4 4 4 4 3 5 5 6 5 4 3 3 2 3 3 5 6 6 7 6 5 4 5 3 2 3 3 2 2 1
6 7 8 7 4 5 9 11 10 7 6 7 6 6 6 6 5 4 3 3 3 3 4 4 5 5 5 4 4 4 3 2 2 2 3 6 6 7 6 5 4 4 3 2 3 3 3 2 1
5 7 8 6 4 5 6 10 9 8 7 8 8 8 7 6 4 3 3 3 4 4 4 4 5 6 5 4 3 3 3 2 2 2 3 4 5 6 6 6 4 4 3 3 3 3 3 1 1
6 7 7 5 3 2 3 6 5 4 2 3 5 7 7 8 7 5 4 4 4 4 4 4 4 5 5 5 4 3 3 2 1 1 1 2 4 6 6 5 5 4 4 3 3 3 4 3 1
6 6 6 5 3 3 2 4 6 3 3 5 6 7 8 7 7 6 5 4 4 4 4 4 4 4 5 6 5 5 4 3 3 2 2 2 3 5 6 6 5 4 3 3 3 2 2 4 3
4 3 4 4 3 3 2 3 6 2 5 7 7 8 8 7 7 6 5 5 4 4 4 3 3 3 4 5 6 6 4 3 2 2 3 2 2 3 4 6 5 4 3 3 3 2 2 3 3
2 0 1 1 1 4 4 4 5 5 6 5 5 5 5 5 5 5 4 4 4 3 3 3 3 2 3 4 5 6 6 5 4 3 3 2 1 1 2 4 5 4 3 3 3 2 3 2 2
2 3 1 2 1 4 2 3 6 5 5 5 5 4 4 4 4 4 4 4 4 4 4 4 4 3 3 4 5 5 5 6 6 5 4 3 2 2 3 3 4 3 3 3 3 2 2 2 3
2 3 4 3 3 3 1 4 6 3 2 3 3 4 3 3 3 4 5 5 5 5 5 5 5 4 4 4 4 4 4 4 3 4 4 4 3 3 3 3 4 4 4 4 3 2 2 2 3
2 2 2 3 0 2 3 4 6 3 3 2 3 2 3 2 2 3 3 4 4 5 5 5 5 4 4 4 3 3 4 4 3 3 3 3 2 2 3 3 3 3 4 3 3 2 2 2 2
2 3 2 3 2 3 3 3 3 4 4 3 3 3 3 2 2 2 2 2 3 3 4 4 5 5 4 4 3 3 3 3 3 3 3 3 2 2 3 2 2 2 3 3 2 2 2 2 2
1 2 2 2 2 3 2 5 3 4 4 4 4 4 4 3 3 3 2 2 2 2 3 4 4 4 4 4 3 3 2 2 2 2 3 4 3 3 3 3 3 2 2 2 3 2 3 3 2
2 3 3 3 3 2 2 5 3 3 4 4 4 4 3 3 3 3 2 1 1 2 3 3 4 4 4 3 3 3 2 2 3 3 3 3 4 3 3 3 3 3 3 3 3 3 3 3 3
Wind_Direction
339 346 34 55 65 66 228 233 207 207 208 212 164 151 159 166 165 188 0 135 130 139 146 146 146 141 138 134 132 127 126 127 125 124 123 121 120 118 116 114 112 109 106 104 103 101 98 97 94
340 355 48 68 122 196 244 222 203 214 188 123 81 103 116 221 232 110 112 138 133 138 142 144 144 142 138 134 131 132 128 129 129 127 125 124 122 120 119 116 113 110 107 104 102 101 99 98 96
353 36 87 106 169 200 213 204 204 222 197 127 108 80 160 207 197 175 173 147 132 134 141 148 143 143 141 137 135 133 134 130 130 131 129 127 125 123 121 119 116 113 109 105 103 101 100 98 96
51 52 64 147 216 220 207 188 181 168 341 105 140 126 256 331 240 189 150 143 140 137 140 148 145 143 144 141 139 135 133 134 131 133 133 131 128 126 124 122 118 115 112 108 105 102 101 99 95
62 95 139 219 230 232 225 212 165 155 170 82 142 167 276 349 58 108 135 142 146 142 137 148 148 144 145 143 140 137 135 135 135 133 137 134 131 129 126 124 122 119 116 112 109 106 103 97 92
89 105 180 221 230 239 231 207 149 156 193 332 132 171 238 60 83 126 138 144 144 144 136 147 149 146 145 145 141 139 137 136 136 133 136 137 135 132 128 126 124 121 120 116 110 106 103 100 94
139 155 206 216 227 241 225 173 170 195 213 227 186 162 249 264 125 141 139 137 135 135 133 138 144 146 145 146 143 141 138 135 134 132 130 135 135 135 131 128 125 123 121 116 111 105 101 99 97
132 140 205 218 219 236 202 162 184 185 224 218 161 174 224 228 154 122 121 125 131 134 131 129 131 138 139 144 143 141 138 135 132 131 127 127 130 132 131 129 128 126 124 119 115 108 101 95 95
109 175 218 212 209 231 192 171 213 181 162 244 236 220 238 151 132 119 117 125 135 144 141 134 128 131 133 137 141 138 137 134 130 130 128 121 120 122 124 128 128 127 126 122 117 109 99 90 90
137 207 226 221 198 208 248 220 196 159 206 246 281 327 104 142 149 151 154 160 166 169 164 151 144 136 132 134 134 133 130 129 126 127 126 120 119 120 122 125 124 123 121 120 114 105 95 87 84
173 213 238 267 264 227 248 285 271 175 221 223 214 194 163 165 169 173 174 174 178 176 168 164 156 143 135 130 130 129 128 127 126 127 127 124 118 115 114 113 110 110 111 104 101 92 89 90 90
194 242 248 264 272 261 244 244 264 239 238 236 205 191 181 183 190 190 184 182 178 170 170 166 157 148 140 133 133 129 135 135 136 137 133 131 126 122 118 113 110 108 108 105 97 92 91 89 91
218 238 255 258 276 258 258 251 247 260 270 249 180 183 193 194 201 203 192 184 176 175 175 168 164 154 150 138 135 131 134 141 140 140 142 142 142 143 133 121 118 115 115 115 109 102 96 86 78
223 232 257 267 261 254 241 263 250 252 260 236 188 202 200 197 194 191 185 182 182 182 179 171 167 158 151 146 143 141 139 139 141 144 148 148 144 139 140 135 127 125 123 122 120 114 107 95 88
241 257 279 259 237 228 228 263 241 244 227 232 209 202 202 200 191 196 192 186 186 187 174 170 167 155 153 148 148 145 145 144 150 152 151 149 149 147 139 148 138 135 130 120 111 104 99 94 87
292 227 255 257 219 216 196 249 250 216 204 226 218 207 213 208 199 199 193 185 183 181 176 172 167 158 157 151 150 149 150 149 151 156 155 154 153 149 141 142 143 137 131 123 120 119 105 99 97
211 220 239 263 221 203 201 244 256 230 211 224 221 209 213 214 205 199 192 187 181 183 175 174 168 160 157 151 145 141 138 142 147 152 155 159 153 150 145 142 138 131 128 126 133 115 125 127 107
218 219 231 240 233 202 221 245 259 235 219 228 223 216 213 213 216 196 185 182 176 175 164 174 164 156 151 146 134 128 128 145 146 159 162 159 155 153 147 143 141 136 129 139 140 135 112 124 131
226 229 244 249 239 216 231 249 259 244 225 229 227 219 217 222 219 193 178 167 166 167 166 175 169 159 152 155 157 159 171 171 171 163 160 160 157 154 149 146 143 141 144 150 153 149 131 109 115
239 245 247 264 257 234 243 259 259 241 223 215 219 218 214 213 206 191 171 171 182 181 177 176 180 167 163 167 167 163 154 159 169 161 157 163 164 163 160 155 157 154 145 140 142 154 149 132 130
245 228 233 246 290 267 260 274 260 254 228 222 224 223 210 206 202 195 180 182 181 186 178 184 184 174 166 153 135 121 107 101 113 173 170 172 178 174 170 163 155 159 160 166 165 167 165 174 189
242 230 232 234 252 269 205 257 267 237 246 235 229 220 213 209 198 193 186 186 189 185 164 168 174 167 164 154 155 160 168 179 201 199 186 182 188 184 173 162 161 164 163 162 170 162 176 170 191
225 241 228 214 210 278 232 219 269 242 247 246 234 220 215 208 199 195 190 193 189 175 164 162 150 153 165 164 166 169 178 182 179 175 174 185 196 181 173 164 160 162 158 160 160 155 164 179 181
231 38 81 75 136 259 233 199 261 221 221 238 236 217 207 203 197 195 192 183 175 158 156 158 160 170 167 176 176 179 180 177 176 182 192 190 195 187 175 161 156 156 156 161 164 157 163 176 166
92 107 35 351 319 254 187 199 249 245 225 223 232 223 201 193 190 196 193 185 181 174 174 178 178 190 188 186 189 188 189 183 190 194 195 194 200 210 199 170 164 160 157 152 148 149 171 181 173
200 162 167 206 237 286 234 233 259 274 266 235 237 225 197 199 198 197 198 194 193 195 190 187 188 193 192 195 197 191 191 188 204 206 197 200 204 203 189 171 171 163 155 151 145 153 191 185 182
150 187 194 146 309 273 266 291 308 323 320 281 254 240 222 221 213 204 203 204 200 198 199 196 192 192 196 198 195 193 185 185 195 200 186 188 184 176 170 163 161 154 145 147 148 172 201 187 186
135 153 104 136 180 259 283 272 269 304 297 281 254 249 242 224 228 221 213 209 208 205 204 192 188 190 192 187 194 197 186 182 184 185 183 176 170 165 170 161 149 141 140 144 151 173 194 173 191
109 118 133 136 166 177 247 270 239 246 271 264 252 250 242 237 235 235 233 223 208 199 201 193 187 184 187 189 189 185 189 169 166 184 187 178 170 167 168 166 163 162 165 165 172 183 188 178 185
175 172 157 171 234 197 196 269 300 267 276 270 271 278 268 247 250 250 237 217 206 203 199 194 189 190 197 188 180 179 182 174 176 184 184 179 174 170 170 171 178 185 182 186 182 187 193 183 191
Height
1501 1502 1504 1506 1510 1519 1519 1513 1509 1508 1507 1506 1506 1507 1508 1510 1513 1517 1511 1509 1511 1513 1515 1518 1520 1522 1524 1525 1527 1528 1530 1531 1533 1534 1535 1536 1537 1538 1538 1539 1540 1540 1541 1542 1542 1542 1543 1543 1543
1501 1502 1505 1505 1514 1524 1517 1508 1507 1504 1504 1504 1505 1506 1507 1507 1508 1508 1507 1508 1510 1513 1515 1517 1520 1522 1524 1525 1527 1528 1530 1531 1533 1534 1535 1536 1537 1538 1539 1540 1540 1541 1542 1542 1543 1543 1543 1543 1543
1500 1502 1504 1506 1513 1513 1508 1503 1502 1502 1502 1503 1504 1505 1506 1506 1506 1507 1507 1508 1511 1513 1515 1517 1519 1521 1523 1525 1526 1528 1530 1531 1533 1534 1535 1536 1537 1538 1539 1540 1541 1541 1542 1543 1543 1543 1544 1544 1544
1500 1502 1504 1508 1507 1502 1499 1499 1499 1501 1502 1502 1503 1505 1505 1507 1506 1506 1507 1508 1510 1513 1515 1517 1519 1521 1523 1525 1526 1528 1529 1531 1532 1534 1535 1536 1537 1538 1539 1540 1541 1542 1543 1543 1544 1544 1544 1545 1545
1499 1501 1506 1508 1503 1499 1498 1498 1499 1500 1501 1502 1503 1503 1504 1505 1505 1506 1507 1508 1510 1512 1514 1516 1518 1520 1522 1524 1526 1528 1529 1531 1532 1533 1535 1536 1538 1539 1539 1540 1541 1542 1543 1543 1544 1544 1545 1545 1545
1499 1499 1507 1505 1500 1497 1497 1498 1499 1500 1501 1502 1502 1502 1502 1504 1504 1505 1506 1508 1510 1512 1514 1516 1518 1520 1521 1523 1525 1527 1528 1530 1532 1533 1535 1536 1537 1539 1540 1540 1541 1542 1543 1543 1544 1544 1545 1545 1545
1498 1500 1502 1501 1500 1498 1496 1497 1498 1499 1500 1501 1501 1502 1501 1502 1503 1504 1506 1507 1510 1512 1513 1515 1517 1519 1521 1522 1524 1526 1528 1529 1531 1533 1534 1536 1537 1538 1539 1540 1541 1542 1543 1543 1544 1544 1545 1545 1545
1495 1499 1501 1501 1499 1496 1495 1495 1497 1498 1499 1500 1501 1501 1500 1501 1502 1503 1505 1507 1509 1511 1513 1514 1516 1518 1520 1522 1524 1526 1527 1529 1530 1532 1533 1535 1536 1538 1539 1540 1541 1542 1542 1543 1544 1544 1544 1545 1545
1495 1501 1499 1497 1496 1494 1494 1494 1495 1497 1498 1498 1499 1499 1499 1500 1500 1502 1503 1505 1508 1510 1512 1514 1515 1517 1519 1521 1523 1525 1527 1528 1530 1531 1533 1534 1536 1537 1538 1539 1540 1541 1542 1543 1543 1543 1544 1544 1545
1494 1497 1493 1493 1493 1493 1493 1493 1494 1495 1495 1496 1496 1497 1498 1498 1499 1500 1501 1502 1505 1507 1510 1512 1514 1516 1518 1520 1522 1524 1526 1527 1529 1530 1532 1533 1535 1536 1538 1539 1540 1541 1541 1542 1543 1543 1544 1544 1544
1491 1493 1492 1492 1491 1492 1493 1493 1494 1493 1494 1493 1493 1494 1496 1497 1498 1499 1500 1501 1503 1505 1508 1510 1513 1515 1517 1518 1520 1522 1524 1526 1528 1529 1531 1532 1534 1535 1537 1538 1539 1540 1541 1542 1542 1543 1543 1543 1544
1491 1491 1491 1491 1491 1491 1492 1492 1492 1491 1490 1490 1491 1492 1493 1495 1496 1497 1498 1500 1501 1504 1506 1508 1511 1513 1515 1517 1518 1520 1523 1525 1526 1528 1530 1531 1532 1534 1535 1537 1538 1539 1540 1541 1541 1542 1542 1543 1543
1490 1489 1490 1490 1490 1490 1490 1490 1490 1488 1488 1488 1489 1490 1491 1492 1494 1496 1497 1499 1500 1502 1504 1507 1509 1512 1514 1516 1517 1519 1521 1523 1525 1527 1529 1530 1531 1532 1534 1535 1537 1538 1539 1540 1540 1541 1541 1541 1542
1488 1488 1488 1488 1487 1488 1488 1487 1488 1485 1486 1486 1486 1487 1488 1490 1491 1493 1495 1497 1499 1501 1503 1505 1507 1510 1512 1514 1516 1518 1520 1522 1524 1525 1527 1529 1530 1531 1532 1534 1535 1537 1538 1538 1539 1539 1540 1540 1540
1488 1488 1487 1486 1486 1486 1487 1486 1483 1483 1484 1484 1483 1484 1485 1487 1489 1490 1492 1494 1496 1498 1500 1503 1505 1508 1510 1512 1514 1516 1518 1520 1522 1524 1526 1527 1529 1530 1531 1533 1534 1535 1536 1537 1537 1538 1538 1538 1539
1487 1489 1489 1484 1484 1484 1489 1484 1479 1480 1481 1481 1481 1482 1483 1484 1486 1488 1490 1492 1494 1496 1498 1501 1503 1506 1508 1510 1512 1514 1516 1518 1520 1522 1524 1525 1527 1528 1529 1530 1532 1533 1534 1535 1535 1536 1536 1536 1536
1490 1491 1488 1485 1482 1482 1485 1481 1478 1478 1478 1479 1478 1478 1480 1482 1483 1485 1487 1490 1492 1494 1496 1499 1501 1503 1506 1509 1511 1513 1514 1516 1518 1520 1522 1523 1525 1526 1527 1529 1529 1530 1532 1533 1533 1534 1534 1534 1534
1489 1489 1487 1485 1482 1481 1482 1479 1476 1476 1476 1476 1475 1476 1477 1479 1480 1483 1485 1487 1490 1492 1494 1497 1499 1501 1504 1506 1508 1510 1512 1514 1516 1518 1519 1521 1523 1524 1525 1526 1527 1528 1529 1530 1531 1532 1532 1532 1532
1486 1485 1484 1482 1479 1480 1479 1476 1473 1472 1473 1473 1473 1473 1474 1476 1478 1480 1482 1485 1487 1489 1491 1493 1496 1499 1501 1503 1504 1506 1509 1510 1512 1514 1516 1518 1520 1522 1523 1524 1525 1526 1527 1528 1529 1529 1529 1530 1530
1483 1483 1483 1480 1478 1478 1477 1474 1469 1468 1468 1468 1469 1470 1471 1473 1475 1477 1479 1481 1484 1486 1488 1491 1493 1495 1498 1500 1502 1505 1506 1508 1510 1512 1513 1515 1517 1519 1520 1521 1522 1523 1524 1525 1526 1527 1526 1527 1527
1481 1481 1480 1480 1477 1476 1477 1473 1467 1464 1464 1464 1465 1467 1468 1470 1472 1474 1476 1478 1481 1483 1485 1487 1490 1492 1495 1498 1500 1502 1504 1506 1507 1508 1509 1511 1514 1515 1517 1518 1519 1520 1521 1522 1523 1524 1524 1524 1525
1479 1477 1477 1478 1480 1480 1478 1477 1466 1464 1463 1462 1462 1463 1465 1467 1469 1471 1473 1476 1478 1480 1483 1485 1487 1490 1493 1495 1497 1498 1500 1502 1503 1505 1507 1509 1511 1512 1513 1515 1516 1517 1518 1519 1520 1521 1521 1521 1521
1476 1474 1476 1477 1479 1482 1479 1480 1468 1463 1462 1460 1459 1459 1460 1463 1465 1467 1470 1473 1476 1478 1480 1482 1484 1487 1490 1492 1494 1496 1498 1499 1501 1503 1505 1506 1507 1508 1510 1511 1512 1514 1514 1516 1516 1517 1518 1518 1518
1474 1475 1476 1479 1481 1481 1478 1479 1470 1463 1459 1457 1457 1457 1457 1460 1462 1465 1468 1470 1472 1475 1477 1480 1482 1484 1486 1488 1490 1492 1494 1495 1497 1499 1500 1501 1503 1504 1506 1507 1508 1510 1511 1512 1513 1514 1514 1514 1515
1475 1478 1481 1482 1485 1480 1476 1476 1467 1456 1455 1455 1455 1455 1456 1458 1460 1462 1464 1467 1469 1472 1475 1477 1479 1481 1483 1485 1487 1489 1490 1492 1494 1495 1496 1497 1499 1500 1502 1503 1504 1506 1507 1508 1509 1510 1511 1511 1511
1477 1478 1483 1484 1484 1480 1476 1474 1462 1455 1453 1453 1453 1453 1454 1456 1457 1460 1462 1465 1468 1470 1472 1474 1477 1478 1480 1482 1483 1485 1487 1489 1491 1492 1493 1494 1496 1496 1498 1499 1501 1502 1503 1504 1505 1506 1507 1508 1508
1479 1481 1481 1485 1486 1484 1477 1471 1461 1452 1451 1451 1452 1452 1452 1454 1456 1457 1460 1462 1465 1467 1469 1471 1473 1474 1477 1478 1480 1482 1484 1485 1487 1488 1490 1491 1492 1493 1494 1496 1497 1498 1499 1500 1501 1503 1504 1504 1504
1479 1481 1484 1484 1484 1480 1475 1472 1465 1455 1452 1451 1451 1451 1452 1453 1454 1455 1458 1460 1462 1464 1466 1468 1470 1471 1473 1475 1477 1479 1480 1482 1483 1484 1485 1487 1488 1489 1491 1492 1494 1494 1495 1497 1498 1499 1500 1500 1500
1481 1483 1483 1485 1484 1483 1478 1468 1457 1455 1453 1452 1451 1451 1451 1452 1453 1454 1456 1457 1459 1461 1463 1465 1466 1468 1470 1472 1474 1475 1476 1478 1479 1481 1482 1482 1484 1486 1487 1489 1490 1491 1492 1493 1495 1495 1496 1496 1496
1479 1481 1483 1482 1484 1487 1484 1471 1455 1454 1452 1451 1450 1450 1450 1451 1452 1453 1454 1455 1457 1458 1460 1461 1463 1464 1466 1468 1469 1471 1473 1474 1475 1477 1478 1479 1480 1482 1484 1485 1486 1488 1489 1490 1491 1492 1492 1492 1492